• In Czech Republic
  • List of Countries
  • For 7 days
  • Water Temperature
  • Satellite Maps
  • Weather Map
  • Weather Widgets
  • user-avatar
    Login

    Hourly Weather Suraż

    Today, 21 October, Sunday

    Time Temperature Precipitation Wind Pressure Humidity
    00:00 +7°C° 0 mm 1 mps 757 mmHg 82%
    01:00 +6°C° 0 mm 1 mps 757 mmHg 84%
    02:00 +6°C° 0 mm 1 mps 757 mmHg 86%
    03:00 +6°C° 0 mm 1 mps 757 mmHg 87%
    04:00 +5°C° 0 mm 1 mps 757 mmHg 88%
    05:00 +5°C° 0 mm 1 mps 757 mmHg 89%
    06:00 +5°C° 0 mm 1 mps 758 mmHg 89%
    07:00 +5°C° 0 mm 1 mps 758 mmHg 89%
    08:00 +5°C° 0 mm 1 mps 759 mmHg 89%
    09:00 +7°C° 0 mm 1 mps 759 mmHg 81%
    10:00 +9°C° 0 mm 1 mps 759 mmHg 74%
    11:00 +11°C° 0 mm 1 mps 759 mmHg 66%
    12:00 +12°C° 0 mm 1 mps 759 mmHg 62%
    13:00 +12°C° 0 mm 1 mps 759 mmHg 59%
    14:00 +13°C° 0 mm 2 mps 759 mmHg 56%
    15:00 +12°C° 0 mm 1 mps 759 mmHg 59%
    16:00 +11°C° 0 mm 1 mps 759 mmHg 62%
    17:00 +10°C° 0 mm 1 mps 759 mmHg 66%
    18:00 +10°C° 0 mm 1 mps 759 mmHg 69%
    19:00 +9°C° 0 mm 1 mps 759 mmHg 72%
    20:00 +7°C° 0 mm 0 mps 759 mmHg 75%
    21:00 +7°C° 0 mm 0 mps 759 mmHg 77%
    22:00 +7°C° 0 mm 1 mps 759 mmHg 79%
    23:00 +7°C° 0 mm 1 mps 759 mmHg 81%

    Tomorrow, 22 October, Monday

    Time Temperature Precipitation Wind Pressure Humidity
    00:00 +7°C° 0 mm 1 mps 759 mmHg 83%
    01:00 +6°C° 0 mm 1 mps 759 mmHg 84%
    02:00 +6°C° 0 mm 1 mps 759 mmHg 86%
    03:00 +5°C° 0 mm 2 mps 759 mmHg 87%
    04:00 +5°C° 0 mm 2 mps 759 mmHg 88%
    05:00 +4°C° 0 mm 2 mps 758 mmHg 90%
    06:00 +4°C° 0 mm 2 mps 758 mmHg 90%
    07:00 +4°C° 0 mm 2 mps 758 mmHg 90%
    08:00 +4°C° 0 mm 2 mps 758 mmHg 91%
    09:00 +6°C° 0 mm 2 mps 758 mmHg 83%
    10:00 +8°C° 0 mm 3 mps 758 mmHg 76%
    11:00 +10°C° 0 mm 3 mps 757 mmHg 68%
    12:00 +11°C° 0 mm 4 mps 757 mmHg 64%
    13:00 +12°C° 0 mm 4 mps 756 mmHg 61%
    14:00 +13°C° 0 mm 4 mps 756 mmHg 57%
    15:00 +12°C° 0 mm 4 mps 755 mmHg 60%
    16:00 +11°C° 0 mm 3 mps 755 mmHg 64%
    17:00 +10°C° 0 mm 3 mps 754 mmHg 67%
    18:00 +10°C° 0.1 mm 3 mps 754 mmHg 71%
    19:00 +9°C° 0.1 mm 3 mps 754 mmHg 75%
    20:00 +7°C° 0.1 mm 4 mps 754 mmHg 80%
    21:00 +7°C° 0.5 mm 4 mps 754 mmHg 81%
    22:00 +8°C° 0.5 mm 4 mps 754 mmHg 83%
    23:00 +8°C° 0.5 mm 4 mps 754 mmHg 85%

    Day after tomorrow, 23 October, Tuesday

    Time Temperature Precipitation Wind Pressure Humidity
    00:00 +7°C° 0.1 mm 4 mps 754 mmHg 86%
    01:00 +6°C° 0.1 mm 4 mps 754 mmHg 87%
    02:00 +5°C° 0.1 mm 3 mps 754 mmHg 88%
    03:00 +4°C° 0 mm 3 mps 754 mmHg 89%
    04:00 +4°C° 0 mm 3 mps 753 mmHg 90%
    05:00 +3°C° 0 mm 3 mps 753 mmHg 92%
    06:00 +3°C° 0 mm 3 mps 753 mmHg 90%
    07:00 +3°C° 0 mm 3 mps 753 mmHg 89%
    08:00 +3°C° 0 mm 3 mps 752 mmHg 88%
    09:00 +4°C° 0 mm 4 mps 752 mmHg 81%
    10:00 +5°C° 0 mm 5 mps 751 mmHg 75%
    11:00 +7°C° 0 mm 6 mps 750 mmHg 68%
    12:00 +6°C° 0.2 mm 7 mps 749 mmHg 69%
    13:00 +5°C° 0.2 mm 8 mps 748 mmHg 69%
    14:00 +5°C° 0.2 mm 8 mps 747 mmHg 70%
    15:00 +5°C° 0.5 mm 9 mps 745 mmHg 72%
    16:00 +5°C° 0.5 mm 9 mps 744 mmHg 74%
    17:00 +3°C° 0.5 mm 10 mps 742 mmHg 77%
    18:00 +3°C° 1.4 mm 10 mps 741 mmHg 79%
    19:00 +5°C° 1.4 mm 10 mps 739 mmHg 81%
    20:00 +5°C° 1.4 mm 10 mps 737 mmHg 83%
    21:00 +5°C° 1.1 mm 10 mps 736 mmHg 84%
    22:00 +6°C° 1.1 mm 10 mps 735 mmHg 84%
    23:00 +6°C° 1.1 mm 10 mps 733 mmHg 85%

    24 October, Wednesday

    Time Temperature Precipitation Wind Pressure Humidity
    00:00 +6°C° 0.6 mm 9 mps 733 mmHg 85%
    01:00 +6°C° 0.6 mm 7 mps 732 mmHg 85%
    02:00 +7°C° 0.6 mm 6 mps 732 mmHg 86%
    03:00 +7°C° 0.6 mm 6 mps 732 mmHg 85%
    04:00 +5°C° 0.6 mm 6 mps 732 mmHg 85%
    05:00 +5°C° 0.6 mm 6 mps 732 mmHg 85%
    06:00 +4°C° 1.1 mm 6 mps 733 mmHg 81%
    07:00 +3°C° 1.1 mm 7 mps 734 mmHg 77%
    08:00 +3°C° 1.1 mm 7 mps 734 mmHg 73%
    09:00 +2°C° 0.1 mm 8 mps 735 mmHg 68%
    10:00 +4°C° 0.1 mm 8 mps 736 mmHg 63%
    11:00 +3°C° 0.1 mm 9 mps 736 mmHg 58%
    12:00 +3°C° 0.1 mm 9 mps 737 mmHg 57%
    13:00 +5°C° 0.1 mm 10 mps 737 mmHg 57%
    14:00 +5°C° 0.1 mm 10 mps 737 mmHg 57%
    15:00 +3°C° 0 mm 9 mps 737 mmHg 59%
    16:00 +3°C° 0 mm 9 mps 737 mmHg 61%
    17:00 +4°C° 0 mm 8 mps 738 mmHg 63%
    18:00 +3°C° 0.1 mm 9 mps 738 mmHg 65%
    19:00 +3°C° 0.1 mm 9 mps 738 mmHg 67%
    20:00 +3°C° 0.1 mm 10 mps 739 mmHg 69%
    21:00 +3°C° 0.1 mm 10 mps 739 mmHg 69%
    22:00 +3°C° 0.1 mm 10 mps 739 mmHg 69%
    23:00 +3°C° 0.1 mm 10 mps 740 mmHg 69%

    25 October, Thursday

    Time Temperature Precipitation Wind Pressure Humidity
    00:00 +3°C° 0 mm 9 mps 740 mmHg 69%
    01:00 +3°C° 0 mm 9 mps 741 mmHg 70%
    02:00 +2°C° 0 mm 9 mps 742 mmHg 70%
    03:00 +2°C° 0 mm 8 mps 742 mmHg 71%
    04:00 +2°C° 0 mm 8 mps 742 mmHg 72%
    05:00 +3°C° 0 mm 7 mps 743 mmHg 74%
    06:00 +2°C° 0 mm 7 mps 743 mmHg 75%
    07:00 +2°C° 0 mm 7 mps 743 mmHg 76%
    08:00 +2°C° 0 mm 6 mps 743 mmHg 77%
    09:00 +3°C° 0 mm 7 mps 743 mmHg 71%
    10:00 +4°C° 0 mm 7 mps 743 mmHg 65%
    11:00 +5°C° 0 mm 7 mps 743 mmHg 60%
    12:00 +5°C° 0.1 mm 7 mps 743 mmHg 61%
    13:00 +4°C° 0.1 mm 7 mps 742 mmHg 63%
    14:00 +4°C° 0.1 mm 7 mps 741 mmHg 65%
    15:00 +4°C° 0.8 mm 7 mps 740 mmHg 72%
    16:00 +4°C° 0.8 mm 7 mps 740 mmHg 80%
    17:00 +4°C° 0.8 mm 7 mps 739 mmHg 87%
    18:00 +5°C° 0.4 mm 7 mps 738 mmHg 86%
    19:00 +6°C° 0.4 mm 8 mps 737 mmHg 86%
    20:00 +7°C° 0.4 mm 8 mps 737 mmHg 85%
    21:00 +7°C° 0.2 mm 8 mps 737 mmHg 83%
    22:00 +7°C° 0.2 mm 8 mps 737 mmHg 81%
    23:00 +6°C° 0.2 mm 8 mps 737 mmHg 79%

    26 October, Friday

    Time Temperature Precipitation Wind Pressure Humidity
    00:00 +6°C° 0.1 mm 8 mps 737 mmHg 79%
    01:00 +6°C° 0.1 mm 7 mps 738 mmHg 79%
    02:00 +6°C° 0.1 mm 7 mps 738 mmHg 78%
    03:00 +5°C° 0.1 mm 6 mps 739 mmHg 78%
    04:00 +5°C° 0.1 mm 6 mps 739 mmHg 78%
    05:00 +4°C° 0.1 mm 6 mps 740 mmHg 78%
    06:00 +4°C° 0 mm 6 mps 740 mmHg 78%
    07:00 +4°C° 0 mm 6 mps 741 mmHg 79%
    08:00 +3°C° 0 mm 6 mps 741 mmHg 79%
    09:00 +4°C° 0 mm 6 mps 741 mmHg 74%
    10:00 +7°C° 0 mm 6 mps 742 mmHg 68%
    11:00 +8°C° 0 mm 7 mps 742 mmHg 63%
    12:00 +8°C° 0 mm 6 mps 742 mmHg 61%
    13:00 +9°C° 0 mm 6 mps 742 mmHg 59%
    14:00 +9°C° 0 mm 6 mps 742 mmHg 57%
    15:00 +9°C° 0 mm 5 mps 742 mmHg 62%
    16:00 +8°C° 0 mm 4 mps 742 mmHg 66%
    17:00 +8°C° 0 mm 3 mps 742 mmHg 71%
    18:00 +8°C° 0.1 mm 3 mps 742 mmHg 75%
    19:00 +8°C° 0.1 mm 3 mps 742 mmHg 80%
    20:00 +7°C° 0.1 mm 4 mps 742 mmHg 84%
    21:00 +7°C° 0.6 mm 4 mps 741 mmHg 86%
    22:00 +7°C° 0.6 mm 5 mps 741 mmHg 88%
    23:00 +7°C° 0.6 mm 5 mps 741 mmHg 89%
    Show more